Location: Unspecified
(0.0000°N, 0.0000°E)
Time: 05:15:52
(UTC+00:00)

N. Korean satellite - Pass Details

Date: 06 August 2020
Orbit: 453 x 506 km, 97.2° (Epoch: 13 August)

Event Time Altitude Azimuth Distance (km) Brightness Sun altitude
Rises 05:21:02 0° 5° (N) 2,518 10.5 -10.7°
Reaches altitude 10° 05:23:05 10° 1° (N) 1,652 9.5 -10.3°
Maximum altitude 05:26:36 60° 281° (W) 559 6.6 -9.4°
Drops below altitude 10° 05:30:11 10° 200° (SSW) 1,689 9.0 -8.6°
Sets 05:32:18 0° 196° (SSW) 2,582 9.9 -8.1°
